TimeEST,TemperatureF,Dew PointF,Humidity,Sea Level PressureIn,VisibilityMPH,Wind Direction,Wind SpeedMPH,Gust SpeedMPH,PrecipitationIn,Events,Conditions,WindDirDegrees,DateUTC
12:54 AM,30.0,23.0,75,30.31,10.0,NNW,3.5,-,N/A,,Clear,330,2013-03-09 05:54:00
1:54 AM,28.0,23.0,81,30.31,10.0,SW,3.5,-,N/A,,Clear,220,2013-03-09 06:54:00
2:54 AM,28.0,23.0,81,30.29,10.0,Calm,Calm,-,N/A,,Clear,0,2013-03-09 07:54:00
3:54 AM,27.0,21.9,81,30.28,10.0,Calm,Calm,-,N/A,,Clear,0,2013-03-09 08:54:00
4:54 AM,26.1,23.0,88,30.29,10.0,Calm,Calm,-,N/A,,Clear,0,2013-03-09 09:54:00
5:54 AM,25.0,21.9,88,30.30,10.0,Calm,Calm,-,N/A,,Clear,0,2013-03-09 10:54:00
6:54 AM,25.0,21.9,88,30.32,10.0,Calm,Calm,-,N/A,,Clear,0,2013-03-09 11:54:00
7:54 AM,28.9,24.1,82,30.33,10.0,Calm,Calm,-,N/A,,Clear,0,2013-03-09 12:54:00
8:54 AM,34.0,25.0,70,30.35,10.0,SSW,3.5,-,N/A,,Clear,200,2013-03-09 13:54:00
9:54 AM,39.9,25.0,55,30.33,10.0,Variable,4.6,-,N/A,,Clear,0,2013-03-09 14:54:00
10:54 AM,48.0,24.1,39,30.31,10.0,South,6.9,-,N/A,,Clear,170,2013-03-09 15:54:00
11:54 AM,51.1,24.1,35,30.30,10.0,Variable,5.8,-,N/A,,Clear,0,2013-03-09 16:54:00
12:54 PM,55.0,24.1,30,30.28,10.0,South,6.9,-,N/A,,Clear,170,2013-03-09 17:54:00
1:54 PM,57.9,21.0,24,30.25,10.0,Variable,4.6,-,N/A,,Clear,0,2013-03-09 18:54:00
2:54 PM,60.1,23.0,24,30.22,10.0,South,8.1,-,N/A,,Clear,170,2013-03-09 19:54:00
3:54 PM,61.0,23.0,23,30.22,10.0,SSE,8.1,-,N/A,,Clear,160,2013-03-09 20:54:00
4:54 PM,60.1,23.0,24,30.22,10.0,SSE,8.1,-,N/A,,Clear,150,2013-03-09 21:54:00
5:54 PM,57.0,24.1,28,30.23,10.0,SE,6.9,-,N/A,,Scattered Clouds,130,2013-03-09 22:54:00
6:54 PM,54.0,25.0,33,30.25,10.0,SSE,4.6,-,N/A,,Clear,160,2013-03-09 23:54:00
7:54 PM,53.1,24.1,32,30.25,10.0,Calm,Calm,-,N/A,,Mostly Cloudy,0,2013-03-10 00:54:00
8:54 PM,52.0,25.0,35,30.25,10.0,SE,5.8,-,N/A,,Overcast,140,2013-03-10 01:54:00
9:54 PM,51.1,26.1,38,30.27,10.0,SE,5.8,-,N/A,,Overcast,140,2013-03-10 02:54:00
10:54 PM,48.9,26.1,41,30.25,10.0,SE,4.6,-,N/A,,Partly Cloudy,140,2013-03-10 03:54:00
11:54 PM,44.1,28.0,53,30.25,10.0,South,3.5,-,N/A,,Clear,170,2013-03-10 04:54:00